| time (UTC) | temp F | wind direction | speed MPH | gust MPH | rain 1hr in | rain 24hr in | rain mn in | humidity % | barometer mb |
| 20260901110004 | 81 | 171 | 2.0 | 5.0 | 0.00 | 0.00 | 0.00 | 67 | 1016.6 |
| 20260901105504 | 81 | 171 | 2.0 | 5.0 | 0.00 | 0.00 | 0.00 | 67 | 1016.7 |
| 20260901105004 | 81 | 171 | 3.0 | 6.0 | 0.00 | 0.00 | 0.00 | 70 | 1016.7 |
| 20260901104003 | 81 | 159 | 2.0 | 7.0 | 0.00 | 0.00 | 0.00 | 66 | 1016.7 |
| 20260901103003 | 82 | 175 | 2.0 | 5.0 | 0.00 | 0.00 | 0.00 | 65 | 1016.7 |
| 20260901102504 | 82 | 175 | 3.0 | 5.0 | 0.00 | 0.00 | 0.00 | 65 | 1016.7 |
| 20260901102003 | 82 | 175 | 3.0 | 5.0 | 0.00 | 0.00 | 0.00 | 65 | 1016.7 |
| 20260901101504 | 82 | 175 | 2.0 | 5.0 | 0.00 | 0.00 | 0.00 | 65 | 1016.8 |
| 20260901101004 | 82 | 175 | 2.0 | 5.0 | 0.00 | 0.00 | 0.00 | 66 | 1016.8 |
| 20260901100004 | 82 | 164 | 3.0 | 6.0 | 0.00 | 0.00 | 0.00 | 65 | 1016.8 |
| 20260901095503 | 82 | 164 | 1.0 | 2.0 | 0.00 | 0.00 | 0.00 | 65 | 1016.8 |
| 20260901095004 | 82 | 164 | 2.0 | 6.0 | 0.00 | 0.00 | 0.00 | 65 | 1016.8 |
| 20260901094504 | 82 | 164 | 1.0 | 5.0 | 0.00 | 0.00 | 0.00 | 66 | 1016.9 |
| 20260901093003 | 83 | 164 | 2.0 | 5.0 | 0.00 | 0.00 | 0.00 | 62 | 1016.9 |
| 20260901092504 | 83 | 164 | 1.0 | 5.0 | 0.00 | 0.00 | 0.00 | 62 | 1016.8 |
| 20260901092004 | 83 | 164 | 1.0 | 5.0 | 0.00 | 0.00 | 0.00 | 62 | 1016.9 |
| 20260901091503 | 84 | 164 | 2.0 | 5.0 | 0.00 | 0.00 | 0.00 | 62 | 1016.8 |
| 20260901091003 | 84 | 164 | 2.0 | 7.0 | 0.00 | 0.00 | 0.00 | 61 | 1016.8 |
| 20260901090503 | 84 | 163 | 3.0 | 6.0 | 0.00 | 0.00 | 0.00 | 60 | 1016.7 |
| 20260901090006 | 84 | 157 | 2.0 | 7.0 | 0.00 | 0.00 | 0.00 | 60 | 1016.5 |
| 20260901085507 | 84 | 254 | 2.0 | 5.0 | 0.00 | 0.00 | 0.00 | 60 | 1016.4 |
| 20260901085007 | 84 | 165 | 2.0 | 6.0 | 0.00 | 0.00 | 0.00 | 60 | 1016.5 |
| 20260901084007 | 84 | 178 | 3.0 | 7.0 | 0.00 | 0.00 | 0.00 | 59 | 1016.6 |
| 20260901083507 | 84 | 185 | 3.0 | 7.0 | 0.00 | 0.00 | 0.00 | 59 | 1016.6 |
| 20260901083007 | 84 | 183 | 2.0 | 6.0 | 0.00 | 0.00 | 0.00 | 59 | 1016.6 |
| 20260901082507 | 84 | 178 | 5.0 | 8.0 | 0.00 | 0.00 | 0.00 | 59 | 1016.5 |
| 20260901082006 | 84 | 175 | 2.0 | 6.0 | 0.00 | 0.00 | 0.00 | 58 | 1016.5 |
| 20260901081506 | 84 | 177 | 3.0 | 7.0 | 0.00 | 0.00 | 0.00 | 58 | 1016.6 |
| 20260901081007 | 84 | 177 | 3.0 | 8.0 | 0.00 | 0.00 | 0.00 | 58 | 1016.5 |
| 20260901080507 | 84 | 157 | 5.0 | 8.0 | 0.00 | 0.00 | 0.00 | 58 | 1016.6 |
| 20260901080006 | 84 | 167 | 5.0 | 7.0 | 0.00 | 0.00 | 0.00 | 58 | 1016.6 |
| 20260901075507 | 84 | 167 | 5.0 | 8.0 | 0.00 | 0.00 | 0.00 | 57 | 1016.5 |
| 20260901075007 | 85 | 174 | 3.0 | 7.0 | 0.00 | 0.00 | 0.00 | 57 | 1016.5 |
| 20260901074507 | 85 | 150 | 3.0 | 5.0 | 0.00 | 0.00 | 0.00 | 57 | 1016.5 |
| 20260901074007 | 85 | 150 | 4.0 | 8.0 | 0.00 | 0.00 | 0.00 | 56 | 1016.6 |
| 20260901073007 | 85 | 167 | 3.0 | 7.0 | 0.00 | 0.00 | 0.00 | 56 | 1016.5 |
| 20260901072507 | 85 | 166 | 3.0 | 7.0 | 0.00 | 0.00 | 0.00 | 56 | 1016.5 |
| 20260901072007 | 85 | 142 | 2.0 | 8.0 | 0.00 | 0.00 | 0.00 | 56 | 1016.5 |
| 20260901071507 | 85 | 139 | 3.0 | 6.0 | 0.00 | 0.00 | 0.00 | 55 | 1016.5 |
| 20260901071007 | 85 | 161 | 3.0 | 6.0 | 0.00 | 0.00 | 0.00 | 55 | 1016.5 |
| 20260901070507 | 85 | 174 | 3.0 | 8.0 | 0.00 | 0.00 | 0.00 | 55 | 1016.4 |
| 20260901070006 | 85 | 149 | 3.0 | 8.0 | 0.00 | 0.00 | 0.00 | 55 | 1016.5 |
| 20260901065007 | 86 | 144 | 2.0 | 8.0 | 0.00 | 0.00 | 0.00 | 54 | 1016.4 |
| 20260901064506 | 86 | 134 | 3.0 | 6.0 | 0.00 | 0.00 | 0.00 | 54 | 1016.4 |
| 20260901064007 | 86 | 137 | 2.0 | 7.0 | 0.00 | 0.00 | 0.00 | 54 | 1016.4 |
| 20260901063507 | 86 | 117 | 3.0 | 8.0 | 0.00 | 0.00 | 0.00 | 54 | 1016.3 |
| 20260901062507 | 87 | 171 | 4.0 | 9.0 | 0.00 | 0.00 | 0.00 | 53 | 1016.3 |
| 20260901062006 | 87 | 166 | 3.0 | 8.0 | 0.00 | 0.00 | 0.00 | 53 | 1016.3 |
| 20260901061506 | 87 | 159 | 3.0 | 8.0 | 0.00 | 0.00 | 0.00 | 52 | 1016.3 |
| 20260901061007 | 87 | 149 | 3.0 | 12.0 | 0.00 | 0.00 | 0.00 | 52 | 1016.2 |
| 20260901060506 | 87 | 145 | 5.0 | 8.0 | 0.00 | 0.00 | 0.00 | 52 | 1016.1 |
| 20260901060006 | 87 | 163 | 3.0 | 9.0 | 0.00 | 0.00 | 0.00 | 51 | 1016.0 |
| 20260901055006 | 87 | 140 | 3.0 | 9.0 | 0.00 | 0.00 | 0.00 | 50 | 1016.0 |
| 20260901054506 | 87 | 146 | 4.0 | 8.0 | 0.00 | 0.00 | 0.00 | 50 | 1015.9 |
| 20260901053506 | 87 | 142 | 3.0 | 6.0 | 0.00 | 0.00 | 0.00 | 50 | 1015.9 |
| 20260901053006 | 87 | 149 | 3.0 | 6.0 | 0.00 | 0.00 | 0.00 | 50 | 1015.9 |
| 20260901052506 | 87 | 130 | 3.0 | 6.0 | 0.00 | 0.00 | 0.00 | 50 | 1015.9 |
| 20260901052007 | 87 | 120 | 1.0 | 6.0 | 0.00 | 0.00 | 0.00 | 51 | 1015.9 |
| 20260901050506 | 87 | 119 | 2.0 | 2.0 | 0.00 | 0.00 | 0.00 | 51 | 1015.6 |
| 20260901050006 | 87 | 119 | 2.0 | 7.0 | 0.00 | 0.00 | 0.00 | 51 | 1015.6 |
| 20260901045507 | 86 | 120 | 3.0 | 8.0 | 0.00 | 0.00 | 0.00 | 51 | 1015.6 |
| 20260901045006 | 86 | 127 | 4.0 | 10.0 | 0.00 | 0.00 | 0.00 | 52 | 1015.6 |
| 20260901044006 | 86 | 150 | 1.0 | 2.0 | 0.00 | 0.00 | 0.00 | 51 | 1015.4 |
| 20260901043506 | 86 | 150 | 1.0 | 3.0 | 0.00 | 0.00 | 0.00 | 51 | 1015.4 |
| 20260901043006 | 86 | 150 | 0.0 | 2.0 | 0.00 | 0.00 | 0.00 | 50 | 1015.4 |
| 20260901042507 | 86 | 150 | 0.0 | 0.0 | 0.00 | 0.00 | 0.00 | 50 | 1015.5 |
| 20260901042006 | 86 | 150 | 1.0 | 3.0 | 0.00 | 0.00 | 0.00 | 50 | 1015.4 |
| 20260901041506 | 86 | 150 | 2.0 | 3.0 | 0.00 | 0.00 | 0.00 | 50 | 1015.4 |
| 20260901041006 | 86 | 150 | 0.0 | 0.0 | 0.00 | 0.00 | 0.00 | 49 | 1015.4 |
| 20260901040506 | 87 | 150 | 0.0 | 1.0 | 0.00 | 0.00 | 0.00 | 48 | 1015.4 |
| 20260901040007 | 87 | 150 | 0.0 | 2.0 | 0.00 | 0.00 | 0.00 | 48 | 1015.3 |
| 20260901035506 | 87 | 150 | 1.0 | 3.0 | 0.00 | 0.00 | 0.00 | 48 | 1015.4 |
| 20260901035006 | 87 | 150 | 0.0 | 2.0 | 0.00 | 0.00 | 0.00 | 49 | 1015.4 |
| 20260901034506 | 87 | 150 | 1.0 | 2.0 | 0.00 | 0.00 | 0.00 | 48 | 1015.6 |
| 20260901034006 | 87 | 150 | 0.0 | 0.0 | 0.00 | 0.00 | 0.00 | 48 | 1015.4 |
| 20260901033006 | 87 | 150 | 0.0 | 1.0 | 0.00 | 0.00 | 0.00 | 47 | 1015.4 |
| 20260901032506 | 87 | 150 | 1.0 | 2.0 | 0.00 | 0.00 | 0.00 | 46 | 1015.4 |
| 20260901032006 | 87 | 150 | 1.0 | 2.0 | 0.00 | 0.00 | 0.00 | 46 | 1015.4 |
| 20260901031506 | 88 | 150 | 0.0 | 0.0 | 0.00 | 0.00 | 0.00 | 46 | 1015.3 |
| 20260901031006 | 88 | 150 | 0.0 | 0.0 | 0.00 | 0.00 | 0.00 | 45 | 1015.3 |
| 20260901030506 | 88 | 150 | 0.0 | 0.0 | 0.00 | 0.00 | 0.00 | 45 | 1015.3 |
| 20260901030006 | 89 | 150 | 0.0 | 0.0 | 0.00 | 0.00 | 0.00 | 44 | 1015.2 |
| 20260901025506 | 89 | 150 | 0.0 | 0.0 | 0.00 | 0.00 | 0.00 | 43 | 1015.1 |
| 20260901025006 | 90 | 150 | 0.0 | 0.0 | 0.00 | 0.00 | 0.00 | 42 | 1015.1 |
| 20260901024506 | 90 | 150 | 0.0 | 0.0 | 0.00 | 0.00 | 0.00 | 41 | 1015.1 |
| 20260901024006 | 90 | 150 | 0.0 | 3.0 | 0.00 | 0.00 | 0.00 | 41 | 1015.0 |
| 20260901023506 | 91 | 150 | 2.0 | 3.0 | 0.00 | 0.00 | 0.00 | 41 | 1014.9 |
| 20260901023006 | 91 | 150 | 1.0 | 2.0 | 0.00 | 0.00 | 0.00 | 40 | 1014.8 |
| 20260901021505 | 92 | 150 | 1.0 | 2.0 | 0.00 | 0.00 | 0.00 | 39 | 1014.7 |
| 20260901021006 | 92 | 150 | 2.0 | 2.0 | 0.00 | 0.00 | 0.00 | 39 | 1014.6 |
| 20260901020506 | 92 | 150 | 3.0 | 5.0 | 0.00 | 0.00 | 0.00 | 38 | 1014.6 |
| 20260901020006 | 92 | 150 | 2.0 | 5.0 | 0.00 | 0.00 | 0.00 | 38 | 1014.4 |
| 20260901015506 | 93 | 150 | 2.0 | 5.0 | 0.00 | 0.00 | 0.00 | 38 | 1014.6 |
| 20260901015006 | 93 | 150 | 2.0 | 3.0 | 0.00 | 0.00 | 0.00 | 38 | 1014.5 |
| 20260901014505 | 93 | 150 | 2.0 | 3.0 | 0.00 | 0.00 | 0.00 | 38 | 1014.5 |
| 20260901014005 | 94 | 150 | 3.0 | 8.0 | 0.00 | 0.00 | 0.00 | 37 | 1014.5 |
| 20260901013006 | 94 | 150 | 4.0 | 8.0 | 0.00 | 0.00 | 0.00 | 37 | 1014.4 |
| 20260901012506 | 94 | 168 | 3.0 | 10.0 | 0.00 | 0.00 | 0.00 | 36 | 1014.4 |
| 20260901012006 | 94 | 152 | 6.0 | 12.0 | 0.00 | 0.00 | 0.00 | 37 | 1014.3 |
| 20260901011506 | 95 | 172 | 3.0 | 10.0 | 0.00 | 0.00 | 0.00 | 36 | 1014.3 |
| 20260901011006 | 95 | 164 | 5.0 | 9.0 | 0.00 | 0.00 | 0.00 | 36 | 1014.4 |
| 20260901010506 | 95 | 156 | 6.0 | 12.0 | 0.00 | 0.00 | 0.00 | 36 | 1014.3 |
| 20260901005506 | 95 | 155 | 1.0 | 8.0 | 0.00 | 0.00 | 0.00 | 35 | 1014.3 |
| 20260901005006 | 95 | 161 | 3.0 | 8.0 | 0.00 | 0.00 | 0.00 | 35 | 1014.3 |
| 20260901004506 | 96 | 164 | 2.0 | 6.0 | 0.00 | 0.00 | 0.00 | 35 | 1014.2 |
| 20260901004005 | 96 | 51 | 3.0 | 10.0 | 0.00 | 0.00 | 0.00 | 35 | 1014.1 |
| 20260901003506 | 96 | 51 | 4.0 | 8.0 | 0.00 | 0.00 | 0.00 | 34 | 1014.2 |
| 20260901003006 | 96 | 51 | 2.0 | 7.0 | 0.00 | 0.00 | 0.00 | 34 | 1014.2 |
| 20260901002505 | 96 | 51 | 5.0 | 8.0 | 0.00 | 0.00 | 0.00 | 34 | 1014.1 |
| 20260901002006 | 96 | 166 | 4.0 | 12.0 | 0.00 | 0.00 | 0.00 | 33 | 1014.2 |
| 20260901001506 | 96 | 171 | 3.0 | 9.0 | 0.00 | 0.00 | 0.00 | 33 | 1014.1 |
| 20260901001005 | 97 | 140 | 3.0 | 10.0 | 0.00 | 0.00 | 0.00 | 33 | 1014.1 |
| 20260901000506 | 97 | 140 | 3.0 | 9.0 | 0.00 | 0.00 | 0.00 | 33 | 1014.2 |
| 20260901000006 | 97 | 142 | 6.0 | 12.0 | 0.00 | 0.00 | 0.00 | 32 | 1014.1 |
| 20260831235506 | 97 | 156 | 6.0 | 12.0 | 0.00 | 0.00 | 0.00 | 32 | 1014.1 |
| 20260831235005 | 97 | 163 | 5.0 | 9.0 | 0.00 | 0.00 | 0.00 | 33 | 1014.2 |
| 20260831234006 | 98 | 166 | 6.0 | 10.0 | 0.00 | 0.00 | 0.00 | 32 | 1014.3 |
| 20260831233505 | 98 | 142 | 3.0 | 9.0 | 0.00 | 0.00 | 0.00 | 32 | 1014.2 |
| 20260831233005 | 97 | 125 | 4.0 | 9.0 | 0.00 | 0.00 | 0.00 | 33 | 1014.2 |
| 20260831232506 | 98 | 101 | 3.0 | 8.0 | 0.00 | 0.00 | 0.00 | 32 | 1014.2 |
| 20260831232006 | 98 | 186 | 3.0 | 8.0 | 0.00 | 0.00 | 0.00 | 32 | 1014.1 |
| 20260831231505 | 98 | 135 | 3.0 | 8.0 | 0.00 | 0.00 | 0.00 | 32 | 1014.2 |
| 20260831231005 | 98 | 128 | 5.0 | 13.0 | 0.00 | 0.00 | 0.00 | 32 | 1014.0 |
| 20260831230506 | 98 | 165 | 4.0 | 10.0 | 0.00 | 0.00 | 0.00 | 32 | 1014.2 |
| 20260831230005 | 99 | 165 | 5.0 | 13.0 | 0.00 | 0.00 | 0.00 | 32 | 1014.3 |
| 20260831225505 | 99 | 143 | 5.0 | 12.0 | 0.00 | 0.00 | 0.00 | 32 | 1014.3 |
| 20260831225006 | 99 | 120 | 6.0 | 13.0 | 0.00 | 0.00 | 0.00 | 32 | 1014.2 |
| 20260831224506 | 99 | 180 | 3.0 | 8.0 | 0.00 | 0.00 | 0.00 | 32 | 1014.3 |
| 20260831224005 | 99 | 186 | 3.0 | 9.0 | 0.00 | 0.00 | 0.00 | 31 | 1014.3 |
| 20260831222505 | 99 | 185 | 6.0 | 13.0 | 0.00 | 0.00 | 0.00 | 32 | 1014.5 |
| 20260831222005 | 99 | 175 | 6.0 | 13.0 | 0.00 | 0.00 | 0.00 | 32 | 1014.4 |
| 20260831221505 | 99 | 191 | 6.0 | 10.0 | 0.00 | 0.00 | 0.00 | 32 | 1014.5 |
| 20260831221005 | 98 | 123 | 1.0 | 5.0 | 0.00 | 0.00 | 0.00 | 33 | 1014.5 |
| 20260831220505 | 98 | 185 | 3.0 | 10.0 | 0.00 | 0.00 | 0.00 | 32 | 1014.6 |
| 20260831220005 | 99 | 149 | 7.0 | 13.0 | 0.00 | 0.00 | 0.00 | 31 | 1014.6 |
| 20260831215505 | 100 | 163 | 7.0 | 13.0 | 0.00 | 0.00 | 0.00 | 31 | 1014.6 |
| 20260831215005 | 100 | 114 | 9.0 | 14.0 | 0.00 | 0.00 | 0.00 | 32 | 1014.8 |
| 20260831214505 | 100 | 138 | 6.0 | 12.0 | 0.00 | 0.00 | 0.00 | 31 | 1014.8 |
| 20260831214005 | 101 | 169 | 7.0 | 13.0 | 0.00 | 0.00 | 0.00 | 30 | 1014.8 |
| 20260831213505 | 101 | 105 | 5.0 | 10.0 | 0.00 | 0.00 | 0.00 | 31 | 1014.9 |
| 20260831213005 | 101 | 174 | 9.0 | 13.0 | 0.00 | 0.00 | 0.00 | 30 | 1014.9 |
| 20260831212005 | 101 | 187 | 6.0 | 12.0 | 0.00 | 0.00 | 0.00 | 31 | 1015.1 |
| 20260831211505 | 100 | 146 | 7.0 | 13.0 | 0.00 | 0.00 | 0.00 | 32 | 1015.0 |
| 20260831211005 | 101 | 148 | 9.0 | 14.0 | 0.00 | 0.00 | 0.00 | 32 | 1015.2 |
| 20260831210505 | 100 | 170 | 6.0 | 13.0 | 0.00 | 0.00 | 0.00 | 32 | 1015.3 |
| 20260831210005 | 100 | 133 | 5.0 | 8.0 | 0.00 | 0.00 | 0.00 | 32 | 1015.2 |
| 20260831205505 | 100 | 167 | 5.0 | 9.0 | 0.00 | 0.00 | 0.00 | 32 | 1015.4 |
| 20260831205005 | 100 | 137 | 6.0 | 13.0 | 0.00 | 0.00 | 0.00 | 31 | 1015.5 |
| 20260831204506 | 100 | 128 | 7.0 | 14.0 | 0.00 | 0.00 | 0.00 | 33 | 1015.5 |
| 20260831204006 | 100 | 169 | 9.0 | 17.0 | 0.00 | 0.00 | 0.00 | 33 | 1015.5 |
| 20260831203505 | 100 | 119 | 9.0 | 15.0 | 0.00 | 0.00 | 0.00 | 32 | 1015.7 |
| 20260831202505 | 98 | 163 | 6.0 | 13.0 | 0.00 | 0.00 | 0.00 | 35 | 1015.8 |
| 20260831202005 | 99 | 106 | 6.0 | 13.0 | 0.00 | 0.00 | 0.00 | 34 | 1015.7 |
| 20260831201505 | 100 | 127 | 6.0 | 12.0 | 0.00 | 0.00 | 0.00 | 34 | 1015.8 |
| 20260831201005 | 100 | 188 | 10.0 | 17.0 | 0.00 | 0.00 | 0.00 | 34 | 1015.9 |
| 20260831200505 | 101 | 127 | 7.0 | 14.0 | 0.00 | 0.00 | 0.00 | 31 | 1015.9 |
| 20260831200005 | 101 | 107 | 8.0 | 16.0 | 0.00 | 0.00 | 0.00 | 32 | 1016.1 |
| 20260831195505 | 101 | 144 | 7.0 | 13.0 | 0.00 | 0.00 | 0.00 | 32 | 1016.1 |
| 20260831195005 | 100 | 152 | 7.0 | 13.0 | 0.00 | 0.00 | 0.00 | 33 | 1016.2 |
| 20260831194505 | 98 | 166 | 5.0 | 17.0 | 0.00 | 0.00 | 0.00 | 34 | 1016.3 |
| 20260831194005 | 99 | 166 | 2.0 | 8.0 | 0.00 | 0.00 | 0.00 | 34 | 1016.3 |
| 20260831193505 | 99 | 158 | 3.0 | 7.0 | 0.00 | 0.00 | 0.00 | 33 | 1016.5 |
| 20260831193005 | 101 | 156 | 6.0 | 13.0 | 0.00 | 0.00 | 0.00 | 31 | 1016.4 |
| 20260831192505 | 100 | 179 | 10.0 | 14.0 | 0.00 | 0.00 | 0.00 | 31 | 1016.4 |
| 20260831192005 | 98 | 136 | 4.0 | 10.0 | 0.00 | 0.00 | 0.00 | 35 | 1016.5 |
| 20260831191505 | 98 | 137 | 9.0 | 17.0 | 0.00 | 0.00 | 0.00 | 33 | 1016.6 |
| 20260831191005 | 100 | 167 | 10.0 | 16.0 | 0.00 | 0.00 | 0.00 | 32 | 1016.5 |
| 20260831190505 | 99 | 174 | 7.0 | 13.0 | 0.00 | 0.00 | 0.00 | 33 | 1016.6 |
| 20260831190005 | 102 | 161 | 4.0 | 12.0 | 0.00 | 0.00 | 0.00 | 32 | 1016.5 |
| 20260831185504 | 101 | 184 | 6.0 | 13.0 | 0.00 | 0.00 | 0.00 | 33 | 1016.6 |
| 20260831185004 | 100 | 195 | 4.0 | 12.0 | 0.00 | 0.00 | 0.00 | 33 | 1016.6 |
| 20260831184505 | 100 | 176 | 7.0 | 13.0 | 0.00 | 0.00 | 0.00 | 34 | 1016.8 |
| 20260831184005 | 99 | 147 | 5.0 | 13.0 | 0.00 | 0.00 | 0.00 | 37 | 1016.8 |
| 20260831183004 | 98 | 174 | 10.0 | 17.0 | 0.00 | 0.00 | 0.00 | 36 | 1017.0 |
| 20260831182505 | 99 | 158 | 11.0 | 16.0 | 0.00 | 0.00 | 0.00 | 34 | 1017.0 |
| 20260831182005 | 99 | 166 | 4.0 | 17.0 | 0.00 | 0.00 | 0.00 | 34 | 1017.1 |
| 20260831181505 | 99 | 169 | 7.0 | 13.0 | 0.00 | 0.00 | 0.00 | 35 | 1017.2 |
| 20260831181005 | 99 | 168 | 11.0 | 18.0 | 0.00 | 0.00 | 0.00 | 35 | 1017.4 |
| 20260831175505 | 98 | 169 | 5.0 | 12.0 | 0.00 | 0.00 | 0.00 | 38 | 1017.5 |
| 20260831175005 | 97 | 149 | 4.0 | 9.0 | 0.00 | 0.00 | 0.00 | 41 | 1017.6 |
| 20260831174505 | 98 | 191 | 5.0 | 10.0 | 0.00 | 0.00 | 0.00 | 38 | 1017.7 |
| 20260831174005 | 98 | 197 | 3.0 | 9.0 | 0.00 | 0.00 | 0.00 | 39 | 1017.8 |
| 20260831173004 | 98 | 185 | 5.0 | 9.0 | 0.00 | 0.00 | 0.00 | 40 | 1017.9 |
| 20260831172504 | 97 | 243 | 5.0 | 13.0 | 0.00 | 0.00 | 0.00 | 40 | 1018.0 |
| 20260831172005 | 97 | 268 | 2.0 | 7.0 | 0.00 | 0.00 | 0.00 | 41 | 1018.1 |
| 20260831171505 | 97 | 255 | 4.0 | 10.0 | 0.00 | 0.00 | 0.00 | 42 | 1018.1 |
| 20260831171006 | 97 | 261 | 5.0 | 10.0 | 0.00 | 0.00 | 0.00 | 42 | 1018.0 |
| 20260831170505 | 96 | 190 | 3.0 | 12.0 | 0.00 | 0.00 | 0.00 | 42 | 1018.1 |
| 20260831165505 | 96 | 224 | 5.0 | 13.0 | 0.00 | 0.00 | 0.00 | 43 | 1018.2 |
| 20260831165005 | 96 | 174 | 5.0 | 13.0 | 0.00 | 0.00 | 0.00 | 43 | 1018.1 |
| 20260831164504 | 96 | 156 | 5.0 | 10.0 | 0.00 | 0.00 | 0.00 | 43 | 1018.1 |
| 20260831164004 | 95 | 236 | 3.0 | 9.0 | 0.00 | 0.00 | 0.00 | 43 | 1018.1 |
| 20260831163004 | 95 | 256 | 5.0 | 10.0 | 0.00 | 0.00 | 0.00 | 42 | 1018.2 |
| 20260831162505 | 95 | 243 | 5.0 | 12.0 | 0.00 | 0.00 | 0.00 | 42 | 1018.3 |
| 20260831162005 | 95 | 233 | 5.0 | 12.0 | 0.00 | 0.00 | 0.00 | 42 | 1018.3 |
| 20260831161505 | 94 | 270 | 5.0 | 12.0 | 0.00 | 0.00 | 0.00 | 43 | 1018.3 |
| 20260831160504 | 94 | 187 | 4.0 | 10.0 | 0.00 | 0.00 | 0.00 | 44 | 1018.4 |
| 20260831155504 | 93 | 250 | 5.0 | 13.0 | 0.00 | 0.00 | 0.00 | 44 | 1018.3 |
| 20260831155004 | 93 | 240 | 5.0 | 13.0 | 0.00 | 0.00 | 0.00 | 43 | 1018.2 |
| 20260831152504 | 92 | 240 | 3.0 | 10.0 | 0.00 | 0.00 | 0.00 | 45 | 1018.1 |
| 20260831152004 | 92 | 186 | 5.0 | 14.0 | 0.00 | 0.00 | 0.00 | 43 | 1018.1 |
| 20260831151005 | 91 | 209 | 3.0 | 8.0 | 0.00 | 0.00 | 0.00 | 45 | 1018.0 |
| 20260831150505 | 91 | 232 | 5.0 | 8.0 | 0.00 | 0.00 | 0.00 | 46 | 1018.0 |
| 20260831150005 | 91 | 206 | 3.0 | 8.0 | 0.00 | 0.00 | 0.00 | 47 | 1018.0 |
| 20260831145005 | 90 | 218 | 3.0 | 10.0 | 0.00 | 0.00 | 0.00 | 50 | 1017.9 |
| 20260831144504 | 90 | 224 | 3.0 | 12.0 | 0.00 | 0.00 | 0.00 | 50 | 1017.8 |
| 20260831144004 | 89 | 260 | 4.0 | 9.0 | 0.00 | 0.00 | 0.00 | 51 | 1017.9 |
| 20260831143504 | 89 | 188 | 4.0 | 10.0 | 0.00 | 0.00 | 0.00 | 51 | 1017.9 |
| 20260831143004 | 88 | 259 | 3.0 | 8.0 | 0.00 | 0.00 | 0.00 | 54 | 1017.9 |
| 20260831142504 | 88 | 211 | 3.0 | 9.0 | 0.00 | 0.00 | 0.00 | 54 | 1017.8 |
| 20260831142004 | 88 | 233 | 2.0 | 9.0 | 0.00 | 0.00 | 0.00 | 55 | 1017.9 |
| 20260831141504 | 87 | 244 | 3.0 | 7.0 | 0.00 | 0.00 | 0.00 | 55 | 1017.9 |
| 20260831141005 | 87 | 196 | 3.0 | 7.0 | 0.00 | 0.00 | 0.00 | 57 | 1017.9 |
| 20260831140505 | 87 | 246 | 5.0 | 10.0 | 0.00 | 0.00 | 0.00 | 57 | 1018.0 |
| 20260831135504 | 86 | 236 | 4.0 | 7.0 | 0.00 | 0.00 | 0.00 | 58 | 1017.8 |
| 20260831135005 | 86 | 189 | 2.0 | 7.0 | 0.00 | 0.00 | 0.00 | 59 | 1017.7 |
| 20260831134004 | 85 | 171 | 3.0 | 9.0 | 0.00 | 0.00 | 0.00 | 62 | 1017.6 |
| 20260831133004 | 84 | 180 | 2.0 | 8.0 | 0.00 | 0.00 | 0.00 | 63 | 1017.6 |
| 20260831132004 | 83 | 154 | 6.0 | 10.0 | 0.00 | 0.00 | 0.00 | 65 | 1017.4 |
| 20260831131505 | 83 | 182 | 5.0 | 12.0 | 0.00 | 0.00 | 0.00 | 65 | 1017.3 |
| 20260831131004 | 83 | 162 | 4.0 | 7.0 | 0.00 | 0.00 | 0.00 | 66 | 1017.2 |
| 20260831130505 | 82 | 183 | 4.0 | 8.0 | 0.00 | 0.00 | 0.00 | 67 | 1017.2 |
| 20260831130004 | 82 | 172 | 3.0 | 6.0 | 0.00 | 0.00 | 0.00 | 66 | 1017.1 |
| 20260831125005 | 82 | 171 | 3.0 | 6.0 | 0.00 | 0.00 | 0.00 | 66 | 1017.0 |
| 20260831124504 | 82 | 178 | 2.0 | 7.0 | 0.00 | 0.00 | 0.00 | 65 | 1016.9 |
| 20260831124004 | 82 | 176 | 3.0 | 8.0 | 0.00 | 0.00 | 0.00 | 66 | 1016.8 |
| 20260831123504 | 81 | 186 | 5.0 | 8.0 | 0.00 | 0.00 | 0.00 | 66 | 1016.7 |
| 20260831123004 | 81 | 174 | 2.0 | 3.0 | 0.00 | 0.00 | 0.00 | 66 | 1016.6 |
| 20260831122504 | 82 | 187 | 2.0 | 5.0 | 0.00 | 0.00 | 0.00 | 66 | 1016.6 |
| 20260831122004 | 82 | 189 | 2.0 | 5.0 | 0.00 | 0.00 | 0.00 | 66 | 1016.5 |
| 20260831121505 | 82 | 223 | 2.0 | 7.0 | 0.00 | 0.00 | 0.00 | 66 | 1016.4 |
| 20260831121004 | 82 | 205 | 1.0 | 7.0 | 0.00 | 0.00 | 0.00 | 66 | 1016.3 |
| 20260831120504 | 82 | 200 | 3.0 | 8.0 | 0.00 | 0.00 | 0.00 | 66 | 1016.3 |
| 20260831120004 | 82 | 207 | 3.0 | 7.0 | 0.00 | 0.00 | 0.00 | 66 | 1016.3 |
| 20260831115504 | 82 | 201 | 3.0 | 8.0 | 0.00 | 0.00 | 0.00 | 67 | 1016.2 |
| 20260831115004 | 81 | 194 | 2.0 | 7.0 | 0.00 | 0.00 | 0.00 | 68 | 1016.1 |
| 20260831114504 | 81 | 200 | 0.0 | 2.0 | 0.00 | 0.00 | 0.00 | 68 | 1016.1 |
| 20260831114003 | 82 | 197 | 1.0 | 3.0 | 0.00 | 0.00 | 0.00 | 67 | 1016.0 |
| 20260831113504 | 82 | 182 | 1.0 | 3.0 | 0.00 | 0.00 | 0.00 | 67 | 1016.0 |
| 20260831113004 | 82 | 200 | 1.0 | 3.0 | 0.00 | 0.00 | 0.00 | 67 | 1016.0 |
| 20260831112503 | 82 | 200 | 1.0 | 3.0 | 0.00 | 0.00 | 0.00 | 66 | 1015.9 |
| 20260831111004 | 82 | 239 | 2.0 | 8.0 | 0.00 | 0.00 | 0.00 | 66 | 1015.8 |